User: anonymous   Login
Location: Unspecified
(0.0000°N, 0.0000°E)
Time: 00:40:51
(UTC+00:00)
Language:

ORS OBJECT Z - Orbit

View from above orbital plane
View from above orbital plane
View from above satellite
View from above satellite

Ground track
Ground track

The orbit data is extracted from the following two-line orbital elements,

1 39403U 13064Z   17206.35333343 +.00004266 +00000-0 +81348-4 0  9992
2 39403 040.5237 172.8018 0003377 211.0085 149.0535 15.49042716203377
Epoch (UTC): 25 July 2017 08:28:48
Eccentricity: 0.0003377
inclination: 40.5237°
perigee height: 417 km
apogee height: 422 km
right ascension of ascending node: 172.8018°
argument of perigee: 211.0085°
revolutions per day: 15.49042716
mean anomaly at epoch: 149.0535°
orbit number at epoch: 20337

The dashed part of the orbit path shows where the satellite is in the earth's shadow,  

DLR